GW2366 Weather Reports


time (UTC)temp
C
wind
direction
speed
KPH
gust
KPH
rain 1hr
cm
rain 24hr
cm
rain mn
cm
humidity
%
barometer
mb
20260506150017 12 329 0.0 0.0 0.00 0.00 0.00 94 1020.1
20260506145514 12 326 0.0 0.0 0.00 0.00 0.00 96 1020.1
20260506145011 12 328 0.0 0.0 0.00 0.00 0.00 97 1020.1
20260506144508 12 306 0.0 0.0 0.00 0.00 0.00 98 1020.3
20260506144005 11 305 0.0 0.0 0.00 0.00 0.00 98 1020.1
20260506143502 11 279 0.0 0.0 0.00 0.00 0.00 99 1020.1
20260506143001 11 284 0.0 0.0 0.00 0.00 0.00 99 1020.0
20260506142458 11 282 0.0 0.0 0.00 0.00 0.00 99 1020.1
20260506141956 11 282 0.0 0.0 0.00 0.00 0.00 99 1019.9
20260506141454 11 319 0.0 0.0 0.00 0.00 0.00 99 1019.8
20260506140952 11 320 0.0 0.0 0.00 0.00 0.00 99 1019.8
20260506140449 11 320 0.0 0.0 0.00 0.00 0.00 99 1019.7
20260506135945 11 320 0.0 0.0 0.00 0.00 0.00 99 1019.8
20260506135443 11 319 0.0 0.0 0.00 0.00 0.00 99 1019.7
20260506134938 11 320 0.0 0.0 0.00 0.00 0.00 99 1019.8
20260506134435 11 320 0.0 0.0 0.00 0.00 0.00 99 1019.6
20260506133932 11 326 0.0 0.0 0.00 0.00 0.00 99 1019.7
20260506133429 11 326 0.0 0.0 0.00 0.00 0.00 99 1019.6
20260506132926 11 326 0.0 0.0 0.00 0.00 0.00 99 1019.7
20260506132423 11 332 0.0 0.0 0.00 0.00 0.00 99 1019.6
20260506131920 11 320 0.0 0.0 0.00 0.00 0.00 99 1019.7
20260506131417 11 320 0.0 0.0 0.00 0.00 0.00 99 1019.6
20260506130914 11 320 0.0 0.0 0.00 0.00 0.00 99 1019.7
20260506130410 11 348 0.0 0.0 0.00 0.00 0.00 99 1019.5
20260506125909 11 341 0.0 0.0 0.00 0.00 0.00 99 1019.4
20260506125406 11 341 0.0 0.0 0.00 0.00 0.00 99 1019.3
20260506124904 11 341 0.0 0.0 0.00 0.00 0.00 99 1019.2
20260506124401 11 341 0.0 0.0 0.00 0.00 0.00 99 1019.2
20260506123859 11 341 0.0 0.0 0.00 0.00 0.00 99 1019.2
20260506123357 11 341 0.0 0.0 0.00 0.00 0.00 99 1019.3
20260506122854 11 341 0.0 0.0 0.00 0.00 0.00 99 1019.3
20260506122350 11 341 0.0 0.0 0.00 0.00 0.00 99 1019.3
20260506121849 11 341 0.0 0.0 0.00 0.00 0.00 99 1019.2
20260506121346 11 341 0.0 0.0 0.00 0.00 0.00 99 1019.2
20260506120843 11 341 0.0 0.0 0.00 0.00 0.00 99 1019.3
20260506120340 11 341 0.0 0.0 0.00 0.00 0.00 99 1019.2
20260506115837 11 341 0.0 0.0 0.00 0.00 0.00 99 1019.2
20260506115336 11 341 0.0 0.0 0.00 0.00 0.00 99 1019.1
20260506114834 11 341 0.0 0.0 0.00 0.00 0.00 99 1019.1
20260506114331 11 341 0.0 0.0 0.00 0.00 0.00 99 1019.0
20260506113830 11 341 0.0 0.0 0.00 0.00 0.00 99 1019.0
20260506113327 11 341 0.0 0.0 0.00 0.00 0.00 99 1019.2
20260506112823 11 341 0.0 0.0 0.00 0.00 0.00 99 1019.2
20260506112320 11 341 0.0 0.0 0.00 0.00 0.00 99 1019.1
20260506111818 10 341 0.0 0.0 0.00 0.00 0.00 99 1019.0
20260506111316 10 341 0.0 0.0 0.00 0.00 0.00 99 1019.0
20260506110813 10 341 0.0 0.0 0.00 0.00 0.00 99 1018.9
20260506110310 10 341 0.0 0.0 0.00 0.00 0.00 99 1018.9
20260506105806 10 341 0.0 0.0 0.00 0.00 0.00 99 1018.9
20260506105305 11 341 0.0 0.0 0.00 0.00 0.00 99 1018.8
20260506104801 11 341 0.0 0.0 0.00 0.00 0.00 99 1018.9
20260506104258 11 341 0.0 0.0 0.00 0.00 0.00 99 1018.9
20260506103756 11 341 0.0 0.0 0.00 0.00 0.00 99 1018.8
20260506103253 11 341 0.0 0.0 0.00 0.00 0.00 99 1018.5
20260506102750 11 341 0.0 0.0 0.00 0.00 0.00 99 1018.6
20260506102248 11 341 0.0 0.0 0.00 0.00 0.00 99 1018.7
20260506101745 11 341 0.0 0.0 0.00 0.00 0.00 99 1018.7
20260506101241 11 341 0.0 0.0 0.00 0.00 0.00 99 1018.5
20260506100740 10 341 0.0 0.0 0.00 0.00 0.00 99 1018.7
20260506100237 11 341 0.0 0.0 0.00 0.00 0.00 99 1018.4
20260506095736 11 341 0.0 0.0 0.00 0.00 0.00 99 1018.3
20260506095232 11 341 0.0 0.0 0.00 0.00 0.00 99 1018.3
20260506094729 11 341 0.0 0.0 0.00 0.00 0.00 99 1018.6
20260506094227 11 341 0.0 0.0 0.00 0.00 0.00 99 1018.5
20260506093726 10 341 0.0 0.0 0.00 0.00 0.00 99 1018.5
20260506093222 10 341 0.0 0.0 0.00 0.00 0.00 99 1018.3
20260506092720 10 341 0.0 0.0 0.00 0.00 0.00 99 1018.5
20260506092218 10 341 0.0 0.0 0.00 0.00 0.00 99 1018.7
20260506091715 10 341 0.0 0.0 0.00 0.00 0.00 99 1018.4
20260506091212 10 341 0.0 0.0 0.00 0.00 0.00 99 1018.5
20260506090710 10 341 0.0 0.0 0.00 0.00 0.00 99 1018.5
20260506090207 10 341 0.0 0.0 0.00 0.00 0.00 99 1018.4
20260506085704 10 341 0.0 0.0 0.00 0.00 0.00 99 1018.5
20260506085200 10 341 0.0 0.0 0.00 0.00 0.00 99 1018.7
20260506084656 10 342 0.0 0.0 0.00 0.00 0.00 99 1018.6
20260506084153 10 342 0.0 0.0 0.00 0.00 0.00 99 1018.7
20260506083650 10 342 0.0 0.0 0.00 0.00 0.00 99 1018.6
20260506083148 10 342 0.0 0.0 0.00 0.00 0.00 99 1018.7
20260506082644 10 346 0.0 0.0 0.00 0.00 0.00 99 1018.7
20260506082139 10 277 0.0 0.0 0.00 0.00 0.00 99 1018.6
20260506081638 10 277 0.0 0.0 0.00 0.00 0.00 99 1018.5
20260506081135 10 278 0.0 1.6 0.00 0.00 0.00 99 1018.5
20260506080632 10 280 0.0 0.0 0.00 0.00 0.00 99 1018.5
20260506080129 10 279 0.0 0.0 0.00 0.00 0.00 99 1018.4
20260506073113 10 296 0.0 0.0 0.00 0.00 0.00 99 1018.1
20260506072609 10 285 0.0 0.0 0.00 0.00 0.00 99 1018.2
20260506072108 10 291 1.6 1.6 0.00 0.00 0.00 99 1018.2
20260506071605 10 294 0.0 0.0 0.00 0.00 0.00 99 1018.2
20260506071102 10 309 0.0 0.0 0.00 0.00 0.00 99 1018.1
20260506070559 10 309 0.0 0.0 0.00 0.00 0.00 99 1018.1
20260506062034 10 246 3.2 3.2 0.00 0.08 0.08 99 1017.9
20260506061529 10 282 1.6 1.6 0.00 0.08 0.08 99 1017.7
20260506061027 10 306 0.0 1.6 0.00 0.08 0.08 99 1017.9
20260506060526 10 280 1.6 1.6 0.00 0.08 0.08 99 1017.6
20260506050954 10 262 1.6 3.2 0.00 0.08 0.08 99 1017.5
20260506050452 10 289 0.0 0.0 0.00 0.08 0.08 99 1017.3
20260506044942 10 278 1.6 1.6 0.00 0.08 0.08 99 1017.4
20260506044441 10 265 1.6 3.2 0.00 0.08 0.08 98 1017.2
20260506043937 10 275 0.0 1.6 0.00 0.08 0.08 98 1017.1
20260506043434 10 269 1.6 1.6 0.00 0.08 0.08 98 1017.1
20260506042932 10 281 1.6 1.6 0.00 0.08 0.08 98 1017.1
20260506042431 10 274 0.0 0.0 0.00 0.08 0.08 98 1017.2
20260506041929 10 272 1.6 1.6 0.00 0.08 0.08 97 1016.8
20260506041427 10 281 0.0 0.0 0.00 0.08 0.08 97 1016.9
20260506040924 10 272 0.0 0.0 0.00 0.08 0.08 97 1016.8
20260506040421 10 275 1.6 1.6 0.00 0.08 0.08 96 1016.6
20260506035917 10 277 0.0 0.0 0.00 0.08 0.08 96 1016.6
20260506035415 10 270 1.6 1.6 0.00 0.08 0.08 96 1016.6
20260506034911 11 284 0.0 0.0 0.00 0.08 0.08 95 1016.6
20260506034408 11 283 0.0 0.0 0.00 0.08 0.08 95 1016.6
20260506033905 11 269 0.0 0.0 0.00 0.08 0.08 95 1016.4
20260506033403 11 276 0.0 0.0 0.00 0.08 0.08 94 1016.2
20260506032859 11 276 0.0 0.0 0.00 0.08 0.08 94 1016.0
20260506032356 11 276 0.0 0.0 0.00 0.08 0.08 94 1016.1
20260506031853 11 283 0.0 0.0 0.00 0.08 0.08 93 1015.9
20260506031350 11 282 0.0 0.0 0.00 0.08 0.08 92 1015.8
20260506030848 12 273 0.0 0.0 0.00 0.08 0.08 91 1015.7
20260506030346 12 274 0.0 0.0 0.00 0.08 0.08 90 1015.8
20260506025842 12 299 0.0 0.0 0.00 0.08 0.08 89 1015.8
20260506025339 12 262 0.0 1.6 0.00 0.08 0.08 89 1015.7
20260506024836 12 69 1.6 1.6 0.00 0.08 0.08 89 1015.4
20260506024333 12 292 1.6 1.6 0.00 0.08 0.08 88 1015.5
20260506023829 12 284 1.6 1.6 0.00 0.08 0.08 88 1015.3
20260506023326 13 269 1.6 1.6 0.00 0.08 0.08 88 1015.3
20260506022822 13 298 0.0 0.0 0.00 0.08 0.08 87 1015.3
20260506022320 13 315 0.0 0.0 0.00 0.08 0.08 87 1015.3
20260506021819 13 305 1.6 3.2 0.00 0.08 0.08 87 1015.1
20260506021315 13 293 1.6 3.2 0.00 0.08 0.08 86 1015.2
20260506020811 13 250 4.8 8.0 0.00 0.08 0.08 85 1015.3
20260506020309 13 297 3.2 3.2 0.00 0.08 0.08 84 1015.0
20260506015807 13 291 6.4 9.7 0.00 0.08 0.08 83 1015.2
20260506015306 13 264 4.8 4.8 0.00 0.08 0.08 85 1015.0
20260506014801 13 323 1.6 1.6 0.00 0.08 0.08 84 1014.9
20260506014258 13 253 8.0 11.3 0.00 0.08 0.08 84 1014.9
20260506013754 13 289 1.6 1.6 0.00 0.08 0.08 85 1015.1
20260506013252 13 274 4.8 11.3 0.00 0.08 0.08 84 1015.0
20260506012748 13 224 4.8 8.0 0.00 0.08 0.08 85 1015.2
20260506012245 13 267 4.8 8.0 0.00 0.08 0.08 85 1015.0
20260506011743 13 272 8.0 12.9 0.00 0.08 0.08 85 1015.1
20260506011239 14 264 1.6 3.2 0.00 0.08 0.08 85 1015.1
20260506010737 14 241 3.2 3.2 0.00 0.08 0.08 84 1014.9
20260506010234 14 292 0.0 0.0 0.00 0.08 0.08 85 1015.0
20260506005731 14 255 1.6 1.6 0.00 0.08 0.08 85 1015.1
20260506005228 14 321 1.6 1.6 0.00 0.08 0.08 84 1015.2
20260506004724 14 237 1.6 4.8 0.00 0.08 0.08 83 1015.3
20260506004222 14 248 4.8 4.8 0.00 0.08 0.08 83 1015.0
20260506003717 14 261 4.8 8.0 0.00 0.08 0.08 83 1015.0
20260506003214 14 322 4.8 9.7 0.00 0.08 0.08 82 1015.1
20260506002710 14 288 4.8 8.0 0.00 0.08 0.08 83 1015.0
20260506002206 14 272 3.2 4.8 0.00 0.08 0.08 83 1014.9
20260506001702 14 266 6.4 8.0 0.00 0.08 0.08 83 1014.9
20260506001200 15 296 3.2 3.2 0.00 0.08 0.08 82 1014.9
20260506000656 15 306 6.4 8.0 0.00 0.08 0.08 81 1014.9
20260506000154 15 259 1.6 4.8 0.00 0.08 0.08 81 1014.9
20260505235652 15 285 3.2 4.8 0.00 0.08 0.08 81 1014.8
20260505235149 15 314 1.6 1.6 0.00 0.08 0.08 83 1014.9
20260505234646 15 282 4.8 4.8 0.00 0.08 0.08 82 1014.9
20260505234143 15 297 3.2 3.2 0.00 0.08 0.08 83 1014.7
20260505233639 15 279 1.6 3.2 0.00 0.08 0.08 81 1015.0
20260505233137 15 271 6.4 9.7 0.00 0.08 0.08 80 1014.9
20260505232635 15 254 4.8 8.0 0.00 0.08 0.08 82 1014.7
20260505232132 15 300 3.2 4.8 0.00 0.08 0.08 81 1015.0
20260505231629 15 272 6.4 9.7 0.00 0.08 0.08 81 1015.0
20260505231127 15 296 3.2 4.8 0.00 0.08 0.08 81 1015.0
20260505230625 15 287 6.4 8.0 0.00 0.08 0.08 81 1015.1
20260505230121 15 307 1.6 1.6 0.00 0.08 0.08 82 1015.0
20260505225618 16 299 3.2 4.8 0.00 0.08 0.08 80 1015.0
20260505225114 16 287 1.6 1.6 0.00 0.08 0.08 80 1015.1
20260505224611 16 284 4.8 4.8 0.00 0.08 0.08 81 1015.0
20260505224108 16 226 4.8 4.8 0.00 0.08 0.08 80 1015.0
20260505223605 17 247 3.2 4.8 0.00 0.08 0.08 79 1014.9
20260505223101 17 252 1.6 3.2 0.00 0.08 0.08 78 1015.0
20260505222558 17 254 4.8 4.8 0.00 0.08 0.08 79 1015.2
20260505222054 17 199 4.8 4.8 0.00 0.08 0.08 76 1015.0
20260505221551 17 302 4.8 4.8 0.00 0.08 0.08 79 1015.0
20260505221047 16 257 3.2 3.2 0.00 0.08 0.08 80 1015.1
20260505220545 16 284 1.6 3.2 0.00 0.08 0.08 81 1015.1
20260505220043 16 299 1.6 1.6 0.00 0.08 0.08 80 1015.1
20260505215541 16 276 3.2 3.2 0.00 0.08 0.08 80 1015.3
20260505215038 16 292 1.6 1.6 0.00 0.08 0.08 82 1015.2
20260505214536 16 219 3.2 3.2 0.00 0.08 0.08 81 1015.2
20260505214033 16 318 1.6 3.2 0.00 0.08 0.08 80 1015.4
20260505213531 16 195 4.8 4.8 0.00 0.08 0.08 81 1015.3
20260505213026 16 288 0.0 0.0 0.00 0.08 0.08 81 1015.3
20260505212523 16 309 0.0 1.6 0.00 0.08 0.08 82 1015.2
20260505212020 16 285 1.6 3.2 0.00 0.08 0.08 82 1015.5
20260505211518 16 299 0.0 1.6 0.00 0.08 0.08 83 1015.4
20260505211014 16 232 3.2 3.2 0.00 0.08 0.08 80 1015.4
20260505210511 16 291 3.2 3.2 0.00 0.08 0.08 81 1015.4
20260505210008 17 280 3.2 3.2 0.00 0.08 0.08 79 1015.4
20260505205506 16 290 0.0 1.6 0.00 0.08 0.08 79 1015.5
20260505205003 16 266 3.2 3.2 0.00 0.08 0.08 79 1015.3
20260505204501 16 256 1.6 1.6 0.00 0.08 0.08 78 1015.4
20260505203957 16 313 3.2 3.2 0.00 0.08 0.08 81 1015.3
20260505203454 16 244 1.6 1.6 0.00 0.08 0.08 77 1015.5
20260505202950 16 261 3.2 3.2 0.00 0.08 0.08 80 1015.5
20260505202447 16 312 0.0 0.0 0.00 0.08 0.08 81 1015.5
20260505201943 16 323 0.0 1.6 0.00 0.08 0.08 80 1015.5
20260505201440 16 276 3.2 3.2 0.00 0.08 0.08 79 1015.4
20260505200938 16 308 1.6 1.6 0.00 0.08 0.08 82 1015.5
20260505200436 16 286 1.6 3.2 0.00 0.08 0.08 83 1015.8
20260505195931 15 245 4.8 4.8 0.00 0.08 0.08 81 1015.7
20260505195428 15 287 1.6 1.6 0.00 0.08 0.08 83 1015.7
20260505194926 15 223 1.6 3.2 0.00 0.08 0.08 82 1015.8
20260505194423 15 291 3.2 3.2 0.00 0.08 0.08 81 1015.8
20260505193923 15 296 1.6 3.2 0.00 0.08 0.08 81 1015.5
20260505193421 15 303 1.6 1.6 0.00 0.08 0.08 82 1015.7
20260505192918 16 312 0.0 0.0 0.00 0.08 0.08 81 1015.7
20260505192416 16 334 1.6 1.6 0.00 0.08 0.08 80 1015.8
20260505191914 16 281 3.2 4.8 0.00 0.08 0.08 81 1015.7
20260505191412 16 259 3.2 3.2 0.00 0.08 0.08 81 1015.8
20260505190909 16 294 1.6 3.2 0.00 0.08 0.08 82 1015.4
20260505190404 15 321 1.6 3.2 0.00 0.08 0.08 84 1015.8
20260505185859 15 286 0.0 1.6 0.00 0.08 0.08 84 1016.0
20260505185356 14 258 1.6 3.2 0.00 0.08 0.08 86 1015.8
20260505184852 14 270 3.2 3.2 0.00 0.08 0.08 86 1015.7
20260505184350 13 285 0.0 1.6 0.00 0.08 0.08 86 1015.8
20260505183847 13 283 0.0 1.6 0.00 0.08 0.08 86 1015.9
20260505183343 14 294 4.8 4.8 0.00 0.08 0.08 86 1015.7
20260505182840 13 285 0.0 1.6 0.00 0.08 0.08 87 1015.7
20260505182337 13 262 1.6 3.2 0.00 0.08 0.08 86 1015.3
20260505181834 13 259 1.6 3.2 0.00 0.08 0.08 85 1015.5
20260505181331 14 237 3.2 3.2 0.00 0.08 0.08 85 1015.4
20260505180827 15 246 8.0 9.7 0.00 0.08 0.08 82 1015.4
20260505180324 15 260 1.6 1.6 0.00 0.08 0.08 82 1015.4
20260505175820 15 311 0.0 0.0 0.00 0.08 0.08 80 1015.5
20260505175317 15 225 1.6 3.2 0.00 0.08 0.08 81 1015.3
20260505174814 15 322 1.6 3.2 0.00 0.08 0.08 83 1015.4
20260505174311 14 294 0.0 0.0 0.00 0.08 0.08 83 1015.1
20260505173807 13 297 1.6 1.6 0.00 0.08 0.08 84 1015.0
20260505173303 14 279 1.6 1.6 0.00 0.08 0.08 85 1015.3
20260505172800 13 297 0.0 0.0 0.00 0.08 0.08 85 1015.1
20260505172258 13 243 3.2 3.2 0.00 0.08 0.08 85 1015.2
20260505171752 13 253 3.2 4.8 0.00 0.08 0.08 85 1015.2
20260505171249 13 300 4.8 8.0 0.00 0.08 0.08 85 1015.1
20260505170746 13 308 0.0 0.0 0.00 0.08 0.08 87 1015.1
20260505170243 13 301 0.0 0.0 0.00 0.08 0.08 85 1015.2
20260505165738 13 306 3.2 3.2 0.00 0.08 0.08 86 1015.1
20260505165235 13 300 0.0 0.0 0.00 0.08 0.08 88 1015.2
20260505164730 13 313 0.0 1.6 0.00 0.08 0.08 88 1015.0
20260505164228 13 245 1.6 1.6 0.00 0.08 0.08 88 1015.2
20260505163726 13 317 0.0 0.0 0.00 0.08 0.08 87 1015.0
20260505163224 13 268 3.2 3.2 0.00 0.08 0.08 87 1015.0
20260505162721 13 318 0.0 0.0 0.00 0.08 0.08 88 1015.0
20260505162218 13 218 8.0 9.7 0.00 0.08 0.08 87 1015.0
20260505161715 13 263 1.6 1.6 0.00 0.08 0.08 88 1015.0
20260505161213 12 314 1.6 3.2 0.00 0.08 0.08 89 1014.6
20260505160710 13 310 1.6 1.6 0.00 0.08 0.08 89 1014.7
20260505160207 13 261 4.8 4.8 0.00 0.08 0.08 87 1014.9
20260505153146 11 288 1.6 1.6 0.00 0.08 0.08 99 1014.6
20260505152643 11 295 1.6 3.2 0.00 0.08 0.08 99 1014.7
20260505152139 11 322 4.8 8.0 0.00 0.08 0.08 99 1014.7
20260505151634 11 315 0.0 1.6 0.00 0.08 0.08 99 1014.6
20260505151132 11 318 0.0 0.0 0.00 0.08 0.08 99 1014.6
20260505150628 11 288 0.0 0.0 0.00 0.08 0.08 99 1014.6
20260505150125 10 271 0.0 0.0 0.00 0.08 0.08 99 1014.6